This is the latest recevied weather packets stored in our database for station/object K3HM. If no packets are shown the sender has not sent any weather packets the latest 1 day(s).
| Time | Temp. | Humidity | Pressure | Rain* | Wind** | Luminosity | Snow |
|---|---|---|---|---|---|---|---|
| 1778056126 | 12.78° C | 83% | 1008.9 hPa | 0 mm | 0 m/s | 0 W/m² | - |
| 1778055823 | 12.78° C | 81% | 1009.2 hPa | 0 mm | 0 m/s | 0 W/m² | - |
| 1778055519 | 12.78° C | 82% | 1008.8 hPa | 0 mm | 0 m/s | 0 W/m² | - |
| 1778055218 | 12.78° C | 83% | 1009.2 hPa | 0 mm | 0 m/s | 0 W/m² | - |
| 1778054915 | 12.78° C | 82% | 1008.7 hPa | 0 mm | 0 m/s | 0 W/m² | - |
| 1778054611 | 12.78° C | 82% | 1008.7 hPa | 0 mm | 0 m/s | 0 W/m² | - |
| 1778054309 | 12.78° C | 82% | 1009 hPa | 0 mm | 0 m/s | 0 W/m² | - |
| 1778054006 | 12.78° C | 81% | 1009 hPa | 0 mm | 0 m/s | 0 W/m² | - |
| 1778053703 | 12.78° C | 81% | 1009.2 hPa | 0 mm | 0 m/s | 0 W/m² | - |
| 1778053400 | 12.78° C | 82% | 1009.2 hPa | 0 mm | 0.45 m/s, 10° | 0 W/m² | - |
| 1778053098 | 12.78° C | 83% | 1009.2 hPa | 0 mm | 0 m/s | 0 W/m² | - |
| 1778052795 | 12.78° C | 84% | 1008.9 hPa | 0 mm | 0.45 m/s, 43° | 0 W/m² | - |
| 1778052492 | 13.33° C | 83% | 1009.5 hPa | 0 mm | 0 m/s | 0 W/m² | - |
| 1778052190 | 13.89° C | 76% | 1009.6 hPa | 0 mm | 0 m/s | 0 W/m² | - |
| 1778051887 | 13.33° C | 78% | 1009.4 hPa | 0 mm | 0 m/s | 0 W/m² | - |
| 1778051585 | 12.78° C | 83% | 1009.6 hPa | 0 mm | 0 m/s | 0 W/m² | - |
| 1778051281 | 12.78° C | 82% | 1009.6 hPa | 0 mm | 0.45 m/s, 2° | 0 W/m² | - |
| 1778050979 | 12.78° C | 83% | 1009.5 hPa | 0 mm | 0.45 m/s, 11° | 0 W/m² | - |
| 1778050676 | 12.78° C | 81% | 1009.9 hPa | 0 mm | 0 m/s | 0 W/m² | - |
| 1778050373 | 12.78° C | 82% | 1009.9 hPa | 0 mm | 0 m/s | 0 W/m² | - |
| 1778050070 | 12.78° C | 83% | 1010 hPa | 0 mm | 0 m/s | 0 W/m² | - |
| 1778049765 | 12.78° C | 82% | 1010 hPa | 0 mm | 0 m/s | 0 W/m² | - |
| 1778049463 | 13.33° C | 83% | 1009.9 hPa | 0 mm | 0 m/s | 0 W/m² | - |
| 1778049160 | 13.89° C | 78% | 1010.1 hPa | 0 mm | 0 m/s | 0 W/m² | - |
| 1778048859 | 13.33° C | 76% | 1010 hPa | 0 mm | 0 m/s | 0 W/m² | - |
* Rain latest hour (hover to see other rain measurements)
** Current wind speed in m/s (hover to see current wind gust speed)